Weather History for Crestview, FL

Change the Weather History Date:

Friday, May 16, 2014

  Actual Average Record
Temperature  
Mean Temperature 62 °F -  
Max Temperature 79 °F 85 °F 93 °F (1991)
Min Temperature 45 °F 59 °F 45 °F (2014)
Degree Days  
Heating Degree Days 4    
Growing Degree Days 12 (Base 50)    
Moisture  
Dew Point 50 °F    
Average Humidity 63    
Maximum Humidity 93    
Minimum Humidity 35    
Precipitation  
Precipitation 0.00 in - - ()
Sea Level Pressure  
Sea Level Pressure 30.15 in    
Wind  
Wind Speed 4 mph (WNW)    
Max Wind Speed 16 mph    
Max Gust Speed 23 mph    
Visibility 10 miles    
Events      
Averages and records for this station are not official NWS values.
T = Trace of Precipitation, MM = Missing Value Source: NWS Daily Summary

Daily Weather History Graph

Daily Weather History Graph

Search for Another Location

Airport:

Trip Planner

Search our weather history database for the weather conditions in past years. The results will help you decide how hot, cold, wet, or windy it might be!

Date:

Astronomy

May. 16, 2014 Rise Set
Actual Time 5:50 AM CDT 7:34 PM CDT
Civil Twilight 5:24 AM CDT 8:01 PM CDT
Nautical Twilight 4:52 AM CDT 8:33 PM CDT
Astronomical Twilight 4:18 AM CDT 9:06 PM CDT
Moon 9:41 PM CDT (5/16) 7:31 AM CDT (5/16)
Length of Visible Light 14h 37m
Length of Day
13h 44m
Waning Gibbous, 95% of the Moon is Illuminated
May 16
Waning Gibbous
May 21
Last Quarter
May 28
New
Jun 5
First Quarter
Jun 12
Full

Hourly Weather History & Observations

Time (CDT) Temp. Dew Point Humidity Pressure Visibility Wind Dir Wind Speed Gust Speed Precip Events Conditions
1:53 AM 48.9 °F 46.0 °F 90% 30.16 in 10.0 mi Calm Calm - N/A   Clear
3:53 AM 46.0 °F 44.1 °F 93% 30.15 in 10.0 mi Calm Calm - N/A   Clear
4:53 AM 46.0 °F 44.1 °F 93% 30.14 in 10.0 mi Calm Calm - N/A   Clear
5:53 AM 45.0 °F 43.0 °F 93% 30.15 in 10.0 mi Calm Calm - N/A   Clear
6:53 AM 48.9 °F 46.9 °F 93% 30.17 in 10.0 mi Calm Calm - N/A   Clear
7:53 AM 59.0 °F 52.0 °F 78% 30.19 in 10.0 mi South 4.6 mph - N/A   Clear
8:53 AM 66.9 °F 48.0 °F 51% 30.19 in 10.0 mi WNW 6.9 mph - N/A   Clear
9:53 AM 70.0 °F 46.9 °F 44% 30.19 in 10.0 mi NW 9.2 mph - N/A   Clear
10:53 AM 73.0 °F 46.9 °F 39% 30.19 in 10.0 mi NW 12.7 mph - N/A   Clear
11:53 AM 75.0 °F 46.9 °F 37% 30.18 in 10.0 mi NW 12.7 mph 20.7 mph N/A   Clear
12:53 PM 75.9 °F 46.9 °F 36% 30.16 in 10.0 mi WNW 12.7 mph 19.6 mph N/A   Clear
1:53 PM 78.1 °F 48.0 °F 35% 30.14 in 10.0 mi NNW 16.1 mph 23.0 mph N/A   Partly Cloudy
2:53 PM 78.1 °F 48.9 °F 36% 30.12 in 10.0 mi WNW 13.8 mph 23.0 mph N/A   Clear
3:53 PM 77.0 °F 48.9 °F 37% 30.11 in 10.0 mi NW 8.1 mph - N/A   Mostly Cloudy
4:53 PM 78.1 °F 48.9 °F 36% 30.10 in 10.0 mi WNW 9.2 mph - N/A   Scattered Clouds
5:53 PM 75.9 °F 50.0 °F 40% 30.10 in 10.0 mi NW 6.9 mph - N/A   Partly Cloudy
6:53 PM 73.9 °F 52.0 °F 46% 30.10 in 10.0 mi NW 5.8 mph - N/A   Clear
7:53 PM 66.0 °F 57.0 °F 73% 30.11 in 10.0 mi Calm Calm - N/A   Clear
8:53 PM 62.1 °F 57.9 °F 86% 30.13 in 10.0 mi Calm Calm - N/A   Scattered Clouds
9:53 PM 66.9 °F 55.0 °F 66% 30.16 in 10.0 mi WNW 3.5 mph - N/A   Partly Cloudy
10:53 PM 60.1 °F 55.9 °F 86% 30.18 in 10.0 mi Calm Calm - N/A   Clear
11:53 PM 57.9 °F 55.0 °F 90% 30.17 in 9.0 mi Calm Calm - N/A   Clear